• Currently

    Reported at Minneapolis, Minneapolis-St. Paul International Airport, MN
    4:10 AM CST TUE SEP 19 2017
  • 61°F16°C
  • Overcast
    Overcast
  • Feels Like:61°F16°CDew Point:57°F14°CHumidity:88% Winds:SE 8 mph 13 kph
    Pressure:29.91 in1013 hPaVisibility:10.00 miles16090.00 meters
Time Weather Temp Dew Point
Humidity Winds Visibility Pressure Precipitation
1 hr 24 hr
Tuesday, September 12
23:53 23:53 Clear Clear 69°F21°C 65°F18°C 87% CalmCalm 7.0 miles11.3 km 30.06 in1018 hPa 0.00 in0.00 mm --
22:53 22:53 Clear Clear 70°F21°C 66°F19°C 87% CalmCalm 9.0 miles14.5 km 30.09 in1019 hPa 0.00 in0.00 mm --
21:53 21:53 Clear Clear 71°F22°C 66°F19°C 84% CalmCalm 10.0 miles16.1 km 30.09 in1019 hPa 0.00 in0.00 mm --
20:53 20:53 Clear Clear 73°F23°C 66°F19°C 79% NNW 3 mphNNW 6 kph 10.0 miles16.1 km 30.09 in1019 hPa 0.00 in0.00 mm --
19:53 19:53 Mostly Clear Mostly Clear 76°F24°C 65°F18°C 69% NNW 3 mphNNW 6 kph 10.0 miles16.1 km 30.06 in1018 hPa 0.00 in0.00 mm --
18:53 18:53 Mostly Sunny Mostly Sunny 80°F27°C 64°F18°C 58% WSW 5 mphWSW 7 kph 10.0 miles16.1 km 30.06 in1018 hPa 0.00 in0.00 mm --
17:53 17:53 Sunny Sunny 81°F27°C 63°F17°C 54% W 7 mphW 11 kph 10.0 miles16.1 km 30.06 in1018 hPa 0.00 in0.00 mm --
16:53 16:53 Mostly Sunny Mostly Sunny 82°F28°C 63°F17°C 53% W 6 mphW 9 kph 10.0 miles16.1 km 30.09 in1019 hPa 0.00 in0.00 mm --
15:53 15:53 Mostly Sunny Mostly Sunny 82°F28°C 63°F17°C 53% W 9 mphW 15 kph 10.0 miles16.1 km 30.09 in1019 hPa 0.00 in0.00 mm --
14:53 14:53 Mostly Sunny Mostly Sunny 79°F26°C 62°F17°C 56% SSW 8 mphSSW 13 kph 10.0 miles16.1 km 30.09 in1019 hPa 0.00 in0.00 mm --
13:53 13:53 Mostly Sunny Mostly Sunny 78°F26°C 61°F16°C 56% WSW 9 mphWSW 15 kph 10.0 miles16.1 km 30.12 in1020 hPa 0.00 in0.00 mm --
12:53 12:53 Mostly Sunny Mostly Sunny 76°F24°C 60°F16°C 58% SW 8 mphSW 13 kph 10.0 miles16.1 km 30.15 in1021 hPa 0.00 in0.00 mm --
11:53 11:53 Mostly Sunny Mostly Sunny 74°F23°C 60°F16°C 62% SW 6 mphSW 9 kph 10.0 miles16.1 km 30.15 in1021 hPa 0.00 in0.00 mm --
10:53 10:53 Partly Cloudy Partly Cloudy 70°F21°C 59°F15°C 68% N 6 mphN 9 kph 10.0 miles16.1 km 30.18 in1022 hPa 0.00 in0.00 mm --
09:53 09:53 Mostly Cloudy Mostly Cloudy 66°F19°C 57°F14°C 73% S 7 mphS 11 kph 10.0 miles16.1 km 30.18 in1022 hPa 0.00 in0.00 mm --
08:53 08:53 Mostly Cloudy Mostly Cloudy 64°F18°C 55°F13°C 73% S 7 mphS 11 kph 10.0 miles16.1 km 30.15 in1021 hPa 0.00 in0.00 mm --
07:53 07:53 Partly Cloudy Partly Cloudy 63°F17°C 55°F13°C 76% SSE 9 mphSSE 15 kph 10.0 miles16.1 km 30.15 in1021 hPa 0.00 in0.00 mm --
06:53 06:53 Mostly Sunny Mostly Sunny 60°F16°C 54°F12°C 80% SSE 7 mphSSE 11 kph 10.0 miles16.1 km 30.15 in1021 hPa 0.00 in0.00 mm --
05:53 05:53 Clear Clear 61°F16°C 53°F12°C 75% SE 7 mphSE 11 kph 10.0 miles16.1 km 30.15 in1021 hPa 0.00 in0.00 mm --
04:53 04:53 Clear Clear 62°F17°C 53°F12°C 73% SE 7 mphSE 11 kph 10.0 miles16.1 km 30.18 in1022 hPa 0.00 in0.00 mm --
03:53 03:53 Clear Clear 64°F18°C 52°F11°C 65% S 13 mphS 20 kph 10.0 miles16.1 km 30.18 in1022 hPa 0.00 in0.00 mm --
02:53 02:53 Clear Clear 65°F18°C 53°F12°C 66% S 13 mphS 20 kph 10.0 miles16.1 km 30.18 in1022 hPa 0.00 in0.00 mm --
01:53 01:53 Clear Clear 66°F19°C 55°F13°C 68% S 13 mphS 20 kph 10.0 miles16.1 km 30.18 in1022 hPa 0.00 in0.00 mm --
00:53 00:53 Clear Clear 67°F19°C 56°F13°C 68% S 10 mphS 17 kph 10.0 miles16.1 km 30.18 in1022 hPa 0.00 in0.00 mm --